When you browse on this site, cookies collect data to enhance your experience and personalize the content and advertising you see.
Visit our Privacy Policy to learn more. By continuing to use the site, you agree to this use of cookies and data.

Hourly Weather Chiquimula

Today, 6 August, Thursday

Time Temperature Precipitation Wind Pressure Humidity
00:00 +21°C° 0 mm 0 mps 707 mmHg 97%
01:00 +21°C° 0 mm 0 mps 707 mmHg 96%
02:00 +21°C° 0 mm 0 mps 707 mmHg 96%
03:00 +21°C° 0 mm 0 mps 706 mmHg 96%
04:00 +21°C° 0 mm 0 mps 706 mmHg 96%
05:00 +21°C° 0 mm 0 mps 706 mmHg 96%
06:00 +23°C° 0 mm 1 mps 707 mmHg 95%
07:00 +24°C° 0 mm 1 mps 707 mmHg 89%
08:00 +26°C° 0 mm 1 mps 708 mmHg 83%
09:00 +28°C° 0 mm 1 mps 708 mmHg 78%
10:00 +29°C° 0.1 mm 1 mps 708 mmHg 74%
11:00 +30°C° 0.1 mm 1 mps 708 mmHg 70%
12:00 +31°C° 0.1 mm 1 mps 708 mmHg 66%
13:00 +30°C° 1 mm 1 mps 707 mmHg 73%
14:00 +29°C° 1 mm 1 mps 706 mmHg 80%
15:00 +28°C° 1 mm 1 mps 706 mmHg 86%
16:00 +27°C° 2.2 mm 1 mps 706 mmHg 90%
17:00 +26°C° 2.2 mm 1 mps 706 mmHg 93%
18:00 +24°C° 2.2 mm 1 mps 706 mmHg 96%
19:00 +24°C° 1 mm 1 mps 706 mmHg 97%
20:00 +24°C° 1 mm 1 mps 707 mmHg 98%
21:00 +23°C° 1 mm 1 mps 707 mmHg 98%
22:00 +23°C° 0.3 mm 1 mps 708 mmHg 98%
23:00 +21°C° 0.3 mm 0 mps 708 mmHg 98%

Tomorrow, 7 August, Friday

Time Temperature Precipitation Wind Pressure Humidity
00:00 +21°C° 0.3 mm 0 mps 708 mmHg 98%
01:00 +21°C° 0.6 mm 0 mps 707 mmHg 98%
02:00 +21°C° 0.6 mm 0 mps 707 mmHg 98%
03:00 +21°C° 0.6 mm 0 mps 707 mmHg 98%
04:00 +21°C° 0.9 mm 0 mps 707 mmHg 98%
05:00 +21°C° 0.9 mm 0 mps 707 mmHg 98%
06:00 +21°C° 0.9 mm 0 mps 707 mmHg 99%
07:00 +22°C° 0.3 mm 0 mps 707 mmHg 96%
08:00 +23°C° 0.3 mm 0 mps 708 mmHg 94%
09:00 +25°C° 0.3 mm 1 mps 708 mmHg 92%
10:00 +27°C° 0.9 mm 1 mps 708 mmHg 89%
11:00 +28°C° 0.9 mm 1 mps 708 mmHg 86%
12:00 +29°C° 0.9 mm 1 mps 708 mmHg 82%
13:00 +29°C° 2.1 mm 1 mps 708 mmHg 84%
14:00 +28°C° 2.1 mm 1 mps 707 mmHg 86%
15:00 +28°C° 2.1 mm 1 mps 706 mmHg 88%
16:00 +27°C° 1.8 mm 1 mps 706 mmHg 90%
17:00 +25°C° 1.8 mm 1 mps 707 mmHg 93%
18:00 +24°C° 1.8 mm 1 mps 707 mmHg 96%
19:00 +24°C° 1.8 mm 1 mps 707 mmHg 96%
20:00 +24°C° 1.8 mm 1 mps 708 mmHg 97%
21:00 +23°C° 1.8 mm 1 mps 708 mmHg 98%
22:00 +23°C° 1.1 mm 1 mps 708 mmHg 98%
23:00 +23°C° 1.1 mm 1 mps 708 mmHg 98%

Day after tomorrow, 8 August, Saturday

Time Temperature Precipitation Wind Pressure Humidity
00:00 +23°C° 1.1 mm 1 mps 708 mmHg 98%
01:00 +21°C° 0.5 mm 0 mps 708 mmHg 98%
02:00 +21°C° 0.5 mm 0 mps 708 mmHg 98%
03:00 +21°C° 0.5 mm 0 mps 707 mmHg 98%
04:00 +21°C° 0.2 mm 0 mps 708 mmHg 98%
05:00 +21°C° 0.2 mm 0 mps 708 mmHg 98%
06:00 +23°C° 0.2 mm 1 mps 708 mmHg 98%
07:00 +24°C° 0 mm 1 mps 708 mmHg 96%
08:00 +24°C° 0 mm 1 mps 709 mmHg 93%
09:00 +25°C° 0 mm 1 mps 709 mmHg 91%
10:00 +27°C° 0.2 mm 1 mps 709 mmHg 84%
11:00 +28°C° 0.2 mm 2 mps 709 mmHg 78%
12:00 +30°C° 0.2 mm 2 mps 709 mmHg 72%
13:00 +30°C° 0.4 mm 2 mps 708 mmHg 72%
14:00 +30°C° 0.4 mm 2 mps 708 mmHg 72%
15:00 +30°C° 0.4 mm 2 mps 707 mmHg 73%
16:00 +28°C° 0.8 mm 2 mps 707 mmHg 80%
17:00 +27°C° 0.8 mm 2 mps 708 mmHg 87%
18:00 +25°C° 0.8 mm 2 mps 708 mmHg 94%
19:00 +25°C° 0.8 mm 1 mps 708 mmHg 95%
20:00 +24°C° 0.8 mm 1 mps 709 mmHg 96%
21:00 +24°C° 0.8 mm 1 mps 709 mmHg 97%
22:00 +23°C° 0.2 mm 1 mps 709 mmHg 97%
23:00 +23°C° 0.2 mm 1 mps 709 mmHg 98%

9 August, Sunday

Time Temperature Precipitation Wind Pressure Humidity
00:00 +23°C° 0.2 mm 1 mps 709 mmHg 98%
01:00 +23°C° 0.1 mm 1 mps 708 mmHg 98%
02:00 +23°C° 0.1 mm 1 mps 708 mmHg 98%
03:00 +23°C° 0.1 mm 1 mps 708 mmHg 98%
04:00 +22°C° 0.2 mm 1 mps 708 mmHg 98%
05:00 +20°C° 0.2 mm 0 mps 708 mmHg 98%
06:00 +20°C° 0.2 mm 0 mps 708 mmHg 98%
07:00 +23°C° 0.1 mm 1 mps 708 mmHg 95%
08:00 +24°C° 0.1 mm 1 mps 709 mmHg 93%
09:00 +25°C° 0.1 mm 1 mps 709 mmHg 91%
10:00 +27°C° 0.2 mm 1 mps 709 mmHg 84%
11:00 +28°C° 0.2 mm 2 mps 709 mmHg 78%
12:00 +30°C° 0.2 mm 2 mps 709 mmHg 71%
13:00 +30°C° 0.8 mm 2 mps 708 mmHg 75%
14:00 +30°C° 0.8 mm 2 mps 707 mmHg 79%
15:00 +29°C° 0.8 mm 2 mps 707 mmHg 82%
16:00 +28°C° 1.2 mm 2 mps 707 mmHg 87%
17:00 +26°C° 1.2 mm 2 mps 707 mmHg 92%
18:00 +25°C° 1.2 mm 1 mps 707 mmHg 97%
19:00 +24°C° 1.6 mm 1 mps 707 mmHg 98%
20:00 +24°C° 1.6 mm 1 mps 708 mmHg 98%
21:00 +24°C° 1.6 mm 1 mps 708 mmHg 99%
22:00 +23°C° 0.1 mm 1 mps 708 mmHg 98%
23:00 +23°C° 0.1 mm 1 mps 708 mmHg 98%

10 August, Monday

Time Temperature Precipitation Wind Pressure Humidity
00:00 +23°C° 0.1 mm 1 mps 708 mmHg 98%
01:00 +23°C° 0.2 mm 1 mps 707 mmHg 98%
02:00 +23°C° 0.2 mm 1 mps 707 mmHg 98%
03:00 +20°C° 0.2 mm 0 mps 707 mmHg 98%
04:00 +20°C° 0.3 mm 0 mps 707 mmHg 97%
05:00 +23°C° 0.3 mm 1 mps 707 mmHg 97%
06:00 +23°C° 0.3 mm 1 mps 707 mmHg 97%
07:00 +23°C° 0.1 mm 1 mps 707 mmHg 96%
08:00 +24°C° 0.1 mm 1 mps 708 mmHg 95%
09:00 +24°C° 0.1 mm 1 mps 708 mmHg 94%
10:00 +25°C° 0.1 mm 1 mps 708 mmHg 90%
11:00 +26°C° 0.1 mm 1 mps 708 mmHg 87%
12:00 +26°C° 0.1 mm 1 mps 707 mmHg 83%
13:00 +27°C° 0.4 mm 1 mps 707 mmHg 82%
14:00 +28°C° 0.4 mm 2 mps 706 mmHg 81%
15:00 +28°C° 0.4 mm 2 mps 706 mmHg 80%
16:00 +27°C° 0.7 mm 2 mps 706 mmHg 85%
17:00 +26°C° 0.7 mm 2 mps 706 mmHg 90%
18:00 +25°C° 0.7 mm 1 mps 706 mmHg 94%
19:00 +24°C° 0.4 mm 1 mps 706 mmHg 95%
20:00 +24°C° 0.4 mm 1 mps 707 mmHg 96%
21:00 +23°C° 0.4 mm 1 mps 708 mmHg 97%
22:00 +23°C° 0.2 mm 1 mps 707 mmHg 97%
23:00 +23°C° 0.2 mm 1 mps 707 mmHg 98%

11 August, Tuesday

Time Temperature Precipitation Wind Pressure Humidity
00:00 +23°C° 0.2 mm 1 mps 707 mmHg 98%
01:00 +23°C° 0 mm 1 mps 706 mmHg 98%
02:00 +23°C° 0 mm 1 mps 706 mmHg 98%
03:00 +23°C° 0 mm 1 mps 706 mmHg 98%
04:00 +23°C° 0.1 mm 1 mps 706 mmHg 98%
05:00 +23°C° 0.1 mm 1 mps 706 mmHg 98%
06:00 +23°C° 0.1 mm 1 mps 706 mmHg 98%
07:00 +23°C° 0.2 mm 1 mps 707 mmHg 96%
08:00 +24°C° 0.2 mm 1 mps 707 mmHg 94%
09:00 +25°C° 0.2 mm 1 mps 708 mmHg 92%
10:00 +26°C° 0.2 mm 1 mps 707 mmHg 90%
11:00 +26°C° 0.2 mm 1 mps 707 mmHg 87%
12:00 +27°C° 0.2 mm 1 mps 707 mmHg 84%
13:00 +27°C° 0.5 mm 2 mps 707 mmHg 83%
14:00 +28°C° 0.5 mm 2 mps 706 mmHg 82%
15:00 +28°C° 0.5 mm 2 mps 706 mmHg 81%
16:00 +26°C° 1.1 mm 2 mps 706 mmHg 87%
17:00 +25°C° 1.1 mm 1 mps 706 mmHg 92%
18:00 +23°C° 1.1 mm 1 mps 706 mmHg 97%
19:00 +23°C° 0.4 mm 1 mps 706 mmHg 97%
20:00 +23°C° 0.4 mm 1 mps 707 mmHg 97%
21:00 +23°C° 0.4 mm 1 mps 707 mmHg 98%
22:00 +23°C° 0 mm 1 mps 707 mmHg 98%
23:00 +23°C° 0 mm 1 mps 707 mmHg 98%
Show more